Weather in Sitovo

Russia / Tula Oblast     53°20′26″N   37°49′20″E
В апреле 2022 года жителям России запретили посещать сайт meteo.paraplan.net по решению Генеральной прокуратуры. Аудитория сайта уменьшилась в 10 раз. Владельцы сайта не видят смысла в поддержке погодного сервера в таких условиях. Сайт будет закрыт в октябре.
temp.,
°C
wind,
m/s
gust,
m/s
humid.,
%
clouds,
%
prec.,
mm/h
press.,
hPa
HPBL,
m
25 september, sun
sun2500:00+7sw61093100 3.1 10011117
03:00+6w5792100 5.1 10011023
06:00+5w4793100 0.3 1002824
09:00+6w5892100 0.6 1003903
12:00+7w6992100 0.1 1004868
15:00+7w71194100 0.1 1006794
18:00+6w71093100 0.1 10071005
21:00+6w71194100 0.6 10081092
26 september, mon
mon2600:00+7w71292100 0.1 1009954
03:00+6w51292100 0.1 1010602
06:00+6w41192100 0.1 1010462
09:00+7w51184100 0.1 1011454
12:00+9w597485 0.0 1012699
15:00+11wnw695485 0.0 10121580
18:00+10w3664100 0.0 1013169
21:00+8wsw347269 0.0 101473
27 september, tue
tue2700:00+7sw2375100 0.0 101345
03:00+7s3381100 0.0 101343
06:00+6ese2282100 0.0 101215
09:00+9se358442 0.0 1012355
12:00+8ese4790100 0.1 1012358
15:00+9ese4785100 0.1 1011446
18:00+8ese4892100 0.0 1011359
21:00+8e51194100 0.4 1010419
28 september, wed
wed2800:00+8e51097100 4.1 1008393
03:00+8e4898100 8.6 1006311
06:00+9ese4999100 1.9 1004263
09:00+10se51298100 3.9 1003436
12:00+12se51194100 1.3 1001615
15:00+11se499599 3.9 1001416
18:00+11s3697100 0.1 1001236
21:00+12ssw4898100 0.3 1002300
29 september, thu
thu2900:00+12wsw51195100 0.3 1004368
03:00+11w61194100 0.4 1006507
06:00+11w499146 0.0 1008435
09:00+11w5780100 0.0 1011780
12:00+12wnw5673100 0.0 1013880
15:00+15wnw346348 0.0 1014972
18:00+12e1174100 0.0 101610
21:00+11se3382100 0.0 101845